Date,TemperatureHighF,TemperatureAvgF,TemperatureLowF,DewpointHighF,DewpointAvgF,DewpointLowF,HumidityHigh,HumidityAvg,HumidityLow,PressureMaxIn,PressureMinIn,WindSpeedMaxMPH,WindSpeedAvgMPH,GustSpeedMaxMPH,PrecipitationSumIn
2013-8-1,61.7,59.7,58.8,33.4,32.1,30.7,37,35,31,30.12,30.09,0,0,0,0.00
2013-8-3,76.1,72.3,68.5,30.4,24.8,19.8,24,17,13,30.03,29.97,4,3,6,0.00
2013-8-4,89.8,74.7,61.9,39.9,31.5,20.1,44,23,11,30.06,29.91,4,2,8,0.00
2013-8-5,90.9,74.4,60.4,36.3,29.7,21.9,39,21,11,30.03,29.91,3,1,8,0.00
2013-8-6,93.0,77.1,63.3,32.9,24.9,15.8,20,15,11,30.03,29.91,4,2,8,0.00
2013-8-7,74.3,64.2,57.6,31.3,24.7,16.3,35,23,14,30.06,29.97,5,0,8,0.00
2013-8-8,84.0,67.1,53.2,43.0,32.1,22.6,66,32,12,30.09,29.91,4,1,10,0.00
2013-8-9,84.0,71.0,62.6,46.6,32.7,21.9,54,27,12,29.97,29.85,3,0,6,0.00
2013-8-10,78.4,67.7,59.2,40.3,32.0,22.5,49,28,13,30.09,29.94,2,0,4,0.00
2013-8-11,74.8,64.4,58.1,38.7,32.2,23.0,47,32,16,30.09,30.00,1,0,5,0.00
2013-8-12,74.7,64.2,59.2,43.0,31.9,20.1,52,32,16,30.12,30.03,0,0,5,0.00
2013-8-13,84.7,69.8,54.3,34.3,26.7,18.5,43,22,12,30.12,29.94,2,0,8,0.00
2013-8-14,85.6,70.5,58.3,36.9,27.7,18.9,38,22,11,30.00,29.94,0,0,4,0.00
2013-8-15,78.1,70.8,64.8,42.1,37.3,32.4,39,30,20,30.00,29.97,3,0,6,0.00
2013-8-16,83.1,71.7,64.9,49.1,35.7,17.4,54,31,14,30.06,30.00,2,0,8,0.00
2013-8-17,88.2,71.2,59.5,34.3,27.5,20.5,34,21,11,30.12,30.03,2,0,6,0.00
2013-8-18,85.5,70.9,58.8,44.8,32.5,22.8,57,28,11,30.15,30.06,4,1,8,0.00
2013-8-19,87.3,72.7,61.5,36.5,30.1,19.9,38,23,11,30.15,30.03,5,3,10,0.00
2013-8-20,83.7,69.8,57.0,29.3,23.7,18.5,27,18,11,30.15,29.97,6,4,13,0.00
2013-8-21,84.4,73.0,59.9,29.5,23.7,15.8,25,16,11,30.00,29.88,5,3,10,0.00
2013-8-22,82.9,71.8,62.6,41.7,28.5,18.5,46,22,11,29.94,29.85,3,0,8,0.00
2013-8-23,75.0,64.1,57.2,45.5,34.4,22.1,59,36,16,29.97,29.91,1,0,6,0.00
2013-8-24,75.2,66.6,60.4,39.2,30.0,20.5,44,27,16,29.94,29.88,2,0,5,0.00
2013-8-25,68.2,62.3,56.7,43.7,34.8,25.5,48,36,25,29.97,29.91,4,1,6,0.12
2013-8-26,80.6,66.0,55.6,47.7,31.7,18.9,71,33,12,30.00,29.91,2,0,4,0.00
2013-8-27,83.3,69.8,61.9,34.5,28.5,22.1,35,23,11,29.97,29.82,2,0,6,0.00
2013-8-28,81.0,69.9,61.9,54.7,37.2,22.1,67,35,12,29.94,29.85,3,0,7,0.00
2013-8-29,73.0,67.2,63.1,58.1,47.6,36.7,71,50,33,30.09,29.88,1,0,6,0.12
2013-8-30,83.5,71.8,63.5,53.6,35.7,23.0,65,31,14,30.18,30.06,4,1,8,0.00
2013-8-31,86.5,72.8,61.5,34.2,28.3,22.8,35,20,11,30.06,29.85,5,2,8,0.00